Погода в Кошкельдах

Россия / Чеченская Республика     43°15′10″N   46°21′19″E
темп.,
°C
ветер,
м/с
пор.,
м/с
влажн.,
%
обл.,
%
осадки,
мм/ч
давл.,
гПа
погр.,
м
20 мая, пт
пт2000:00+10з61095100 2.0 1018626
03:00+9з5993100 2.4 1018725
06:00+8зюз5894100 1.4 1019494
09:00+9юз5890100 2.3 1019455
12:00+16з71455100 0.2 10182013
15:00+13зюз71270100 0.4 10181335
18:00+13зюз7117180 0.4 1018679
21:00+11зюз5128394 1.6 1020493
21 мая, сб
сб2100:00+11зюз7138199 0.5 1020708
03:00+12зюз6136887 0.7 1019541
06:00+13зюз512575 0.0 1020567
09:00+18з710415 0.0 10192051
12:00+21зсз58365 0.0 10182143
15:00+21сз56408 0.0 10171880
18:00+18ююв115989 0.0 101646
21:00+13ю337053 0.0 101529
22 мая, вс
вс2200:00+13ююз33635 0.0 101327
03:00+13ююз33576 0.0 101127
06:00+15ююз22580 0.0 101048
09:00+23всв11409 0.0 1008686
12:00+26св32300 0.0 10061623
15:00+26св45320 0.0 10041726
18:00+21в36530 0.0 1003151
21:00+15ю22590 0.0 100421
23 мая, пн
пн2300:00+14зюз12620 0.0 100216
03:00+12зюз22720 0.0 100224
06:00+14зюз49730 0.0 1005391
09:00+19ссз22554 0.0 1004932
12:00+21св4457100 0.1 10041527
15:00+18вюв4865100 0.2 1003571
18:00+16в3970100 0.1 1002367
21:00+15юв3871100 0.3 1004369
24 мая, вт
вт2400:00+13зсз3497100 1.9 1005187
03:00+12з2598100 8.6 1007367
06:00+12зсз3697100 6.5 1008468
09:00+11зюз2395100 10.5 1010238
12:00+12зюз3691100 1.3 1011524
15:00+13зюз51083100 1.4 1011643
18:00+14зюз5971100 0.0 1013660
21:00+11зюз41088100 0.8 1015498